Location: Jablonec nad Nisou
(50.7170°N, 15.1830°E)
Time: 22:04:38
(UTC+02:00)

ISS - Pass Details

Date: 29 March 2019
Orbit: 408 x 410 km, 51.6° (Epoch: 23 April)

Event Time Altitude Azimuth Distance (km) Brightness Sun altitude
Rises 20:04:27 0° 275° (W) 2,336 1.4 -15.7°
Reaches altitude 10° 20:06:32 10° 277° (W) 1,474 0.1 -15.9°
Maximum altitude 20:09:51 74° 3° (N) 430 -3.7 -16.4°
Enters shadow 20:10:55 39° 79° (E) 626 -3.3 -16.6°
